Total_Precipitation_Accumulation
0.16 0.39 0.90 1.37 1.97 2.22 1.70 0.93 0.74 0.56 0.51 0.61 0.57 0.49 0.55 0.78 1.20 2.12 2.18 2.21 1.84 1.73 1.90 2.38 2.83 2.55 2.22 2.03 2.05 2.04 1.82 1.81 1.87 1.94 1.96 2.06 2.07 2.00 2.07 2.34 2.64 2.90 3.12 2.89 2.60 2.33 2.21 2.13 1.90
0.33 0.66 1.14 1.63 2.28 2.33 1.55 0.82 0.66 0.49 0.52 0.57 0.49 0.43 0.55 0.64 0.78 1.29 1.88 2.04 1.57 1.39 1.56 1.89 2.31 2.29 2.03 1.83 1.82 1.75 1.72 1.71 1.81 1.96 1.86 1.90 1.98 2.01 2.17 2.50 2.68 2.79 2.64 2.25 2.22 2.08 1.96 1.80 1.73
0.56 0.91 1.30 1.70 1.73 1.60 0.99 0.56 0.47 0.42 0.54 0.57 0.49 0.49 0.68 0.95 1.07 1.36 1.56 1.51 1.28 1.22 1.43 1.90 2.13 2.00 1.85 1.73 1.66 1.58 1.60 1.67 1.78 1.83 1.79 1.90 1.95 2.07 2.29 2.56 2.59 2.43 2.15 1.97 2.01 1.88 1.78 1.55 1.46
0.72 1.05 1.22 1.29 1.13 0.89 0.61 0.47 0.41 0.42 0.54 0.50 0.48 0.73 1.02 1.22 1.07 1.13 1.19 1.14 1.03 1.12 1.44 1.86 1.88 1.59 1.48 1.49 1.46 1.43 1.47 1.64 1.71 1.67 1.81 1.97 2.07 2.13 2.23 2.29 2.30 2.19 1.92 1.84 1.74 1.63 1.57 1.46 1.38
0.82 1.15 1.31 1.07 0.80 0.62 0.49 0.42 0.40 0.39 0.40 0.49 0.60 1.01 1.42 1.48 1.04 1.07 1.10 0.96 0.88 1.16 1.50 1.63 1.69 1.43 1.27 1.31 1.30 1.35 1.47 1.66 1.70 1.64 1.68 1.79 1.90 1.97 1.94 1.92 1.96 1.98 1.82 1.71 1.62 1.57 1.44 1.48 1.43
0.97 1.01 0.96 0.76 0.59 0.46 0.46 0.43 0.37 0.36 0.43 0.52 0.67 0.87 1.56 1.64 1.25 1.32 1.19 1.14 1.11 1.24 1.39 1.55 1.62 1.40 1.26 1.25 1.26 1.31 1.55 1.80 1.75 1.61 1.60 1.60 1.59 1.62 1.67 1.74 1.83 1.85 1.69 1.58 1.54 1.50 1.41 1.40 1.36
0.79 0.80 0.65 0.49 0.45 0.41 0.39 0.35 0.34 0.37 0.52 0.63 0.72 1.02 1.74 1.97 1.55 1.38 1.39 1.43 1.35 1.43 1.61 1.58 1.42 1.37 1.46 1.53 1.56 1.59 1.84 1.94 1.80 1.74 1.65 1.57 1.51 1.53 1.60 1.57 1.65 1.67 1.59 1.56 1.47 1.45 1.37 1.29 1.27
0.52 0.48 0.40 0.30 0.30 0.37 0.31 0.27 0.31 0.40 0.56 0.70 0.86 1.20 1.88 1.94 1.60 1.47 1.50 1.70 1.58 1.52 1.51 1.46 1.29 1.28 1.35 1.61 1.94 2.01 2.01 1.99 1.90 1.82 1.76 1.61 1.52 1.57 1.64 1.48 1.67 1.69 1.71 1.67 1.69 1.77 1.48 1.38 1.44
0.33 0.39 0.34 0.25 0.22 0.29 0.26 0.24 0.30 0.43 0.57 0.68 0.96 1.19 1.40 1.41 1.49 1.46 1.68 2.03 2.07 1.79 1.65 1.47 1.17 1.27 1.50 1.76 1.91 2.03 2.05 2.16 2.23 2.18 2.03 1.97 2.03 1.99 2.09 1.86 2.19 2.16 2.15 2.07 2.11 2.13 1.94 1.85 1.73
0.29 0.31 0.28 0.20 0.18 0.21 0.20 0.20 0.30 0.58 0.76 1.05 1.35 1.35 1.22 1.25 1.46 1.59 1.82 2.23 2.32 2.17 1.95 1.70 1.45 1.49 1.74 1.73 1.75 1.91 1.95 2.16 2.29 2.39 2.26 2.55 2.82 2.67 2.10 2.40 2.81 2.92 2.84 2.71 2.74 2.81 2.52 2.21 2.00
0.19 0.20 0.17 0.19 0.18 0.15 0.13 0.20 0.27 0.45 0.97 1.52 1.78 1.74 1.58 1.38 1.58 1.92 2.30 2.61 2.39 2.17 2.08 2.03 1.85 1.83 1.75 1.84 1.83 2.02 2.22 2.61 2.50 2.40 2.41 2.85 2.75 2.47 2.27 2.58 3.08 3.43 3.19 2.92 3.02 3.14 2.68 2.69 2.97
0.13 0.15 0.12 0.13 0.13 0.11 0.13 0.19 0.32 0.48 0.98 1.26 1.45 1.54 1.56 1.55 1.68 1.90 2.19 2.48 2.67 2.65 2.55 2.44 2.33 2.23 2.22 2.15 2.05 2.01 2.13 2.38 2.49 2.69 2.45 2.79 3.05 2.95 2.91 3.21 3.24 3.47 3.54 3.86 3.64 3.72 3.50 3.43 3.25
0.14 0.12 0.10 0.09 0.10 0.10 0.13 0.22 0.37 0.53 0.80 0.86 0.93 1.06 1.33 1.62 2.04 2.31 2.41 2.74 2.86 3.05 2.95 2.92 2.85 2.81 2.81 2.74 2.59 2.14 2.31 2.42 2.56 2.88 2.86 2.99 3.35 3.48 3.50 3.50 3.42 3.17 3.45 3.85 4.13 3.73 4.04 4.07 3.65
0.14 0.13 0.10 0.11 0.11 0.13 0.17 0.26 0.39 0.61 0.71 0.74 0.83 1.02 1.29 1.65 1.96 2.39 2.66 3.07 3.10 3.18 3.38 3.59 3.52 3.40 3.43 3.32 3.21 3.00 2.80 2.99 2.99 3.17 3.36 3.53 3.87 4.06 4.00 3.81 3.70 3.31 3.25 3.56 3.79 3.79 4.26 4.10 3.84
0.13 0.14 0.17 0.16 0.14 0.17 0.31 0.49 0.63 0.76 0.77 0.91 0.99 1.23 1.42 1.72 2.10 2.21 2.40 2.69 3.04 3.34 3.88 4.27 4.30 4.19 4.20 4.12 3.84 3.59 3.52 3.55 3.82 4.06 4.10 4.07 4.22 4.55 4.33 4.06 3.65 3.38 3.38 3.63 3.62 3.65 3.81 3.61 3.49
0.16 0.23 0.34 0.29 0.21 0.22 0.37 0.80 0.87 0.85 0.90 1.07 1.10 1.34 1.67 1.76 2.10 2.23 2.30 2.52 3.13 3.62 4.27 4.71 4.88 5.05 4.94 4.93 4.68 4.29 4.17 4.19 4.25 4.39 4.56 4.29 4.29 4.24 4.29 3.91 3.44 3.42 3.40 3.51 3.70 3.56 3.66 3.60 3.57
0.24 0.32 0.42 0.43 0.27 0.27 0.41 0.79 0.90 0.87 1.03 1.15 1.30 1.36 1.51 1.74 2.18 2.47 2.64 2.77 3.31 3.92 4.67 5.25 5.84 6.05 5.89 5.60 5.24 4.90 4.86 4.77 4.61 4.62 4.62 4.41 4.11 3.94 4.18 3.86 3.62 3.50 3.46 3.36 3.13 3.61 3.77 3.75 3.70
0.30 0.31 0.39 0.47 0.29 0.29 0.49 0.72 0.92 0.99 1.12 1.27 1.31 1.30 1.44 1.77 2.00 2.37 2.72 3.10 3.53 3.98 4.80 5.58 6.34 6.55 6.25 5.70 5.40 5.32 5.18 4.90 4.67 4.46 4.37 4.05 3.87 3.58 3.83 3.53 3.43 3.54 3.69 3.53 3.56 3.91 3.92 3.57 3.61
0.19 0.25 0.36 0.41 0.29 0.34 0.51 0.71 0.92 1.06 1.21 1.26 1.40 1.38 1.58 1.86 2.03 2.42 2.79 3.25 3.69 4.23 5.02 5.69 6.28 6.39 6.24 5.88 5.51 5.27 4.83 4.54 4.28 4.01 3.85 3.58 3.31 3.20 3.58 3.30 3.67 3.51 3.47 3.30 3.26 3.44 3.47 3.13 3.30
0.15 0.24 0.40 0.41 0.30 0.36 0.54 0.78 1.05 1.11 1.08 1.08 1.29 1.37 1.44 1.64 1.95 2.32 2.87 3.19 3.55 4.12 4.72 5.10 5.18 4.97 4.89 4.94 4.85 4.57 4.59 4.45 4.40 4.23 4.08 3.55 3.36 3.25 3.05 3.29 3.14 3.12 3.26 3.03 2.96 3.17 3.17 2.85 3.14
0.14 0.22 0.29 0.34 0.36 0.45 0.65 1.03 1.29 1.28 1.07 0.98 1.01 1.12 1.23 1.37 1.57 1.92 2.53 2.87 3.06 3.60 3.97 3.97 3.93 3.86 3.99 4.07 4.00 4.04 4.31 4.40 4.50 4.46 4.20 3.76 3.56 3.43 3.26 3.16 2.99 2.94 2.76 2.92 2.95 2.98 3.09 3.09 2.98
0.15 0.16 0.19 0.24 0.37 0.68 0.79 1.32 1.62 1.67 1.45 1.14 1.01 1.12 1.20 1.29 1.33 1.64 2.00 2.25 2.54 2.84 3.02 3.00 3.11 3.22 3.31 3.40 3.41 3.30 3.33 3.61 3.90 4.14 4.22 4.10 3.84 3.62 3.32 3.11 2.88 2.72 2.56 2.86 2.55 2.67 2.98 3.20 2.89
0.12 0.12 0.17 0.26 0.37 0.57 0.69 1.03 1.58 1.86 1.84 1.45 1.16 1.06 1.02 1.16 1.38 1.57 1.69 1.88 2.00 2.10 2.26 2.34 2.60 3.01 3.19 3.30 3.44 3.34 3.01 3.03 3.13 3.30 3.50 3.52 3.52 3.37 3.03 2.91 2.83 2.65 2.48 2.53 2.53 2.84 2.86 2.83 2.76
0.11 0.17 0.27 0.40 0.61 0.91 0.82 0.92 1.45 1.68 1.73 1.37 1.14 1.05 0.95 0.94 1.09 1.31 1.59 1.70 1.69 1.68 1.84 2.07 2.38 2.91 3.21 3.33 3.26 3.23 3.14 3.15 3.08 3.08 3.18 3.09 3.09 3.03 2.78 2.62 2.71 2.58 2.50 2.55 2.56 2.66 2.73 2.86 2.91
0.13 0.24 0.65 1.09 1.44 1.49 0.91 0.89 1.15 1.21 1.10 1.10 0.96 0.92 0.97 0.91 0.87 0.88 1.07 1.34 1.33 1.30 1.49 1.75 1.97 2.44 2.79 2.97 2.86 2.80 2.94 3.05 2.90 2.72 2.68 2.67 2.54 2.49 2.48 2.52 2.62 2.48 2.52 2.60 2.72 2.75 2.73 2.84 2.88
0.13 0.19 0.50 0.84 1.03 1.16 1.03 1.37 1.47 1.08 0.89 0.80 0.70 0.73 0.83 0.74 0.67 0.63 0.70 0.89 1.14 1.17 1.26 1.39 1.63 1.92 2.25 2.47 2.54 2.62 2.80 2.90 2.82 2.99 2.71 2.58 2.26 2.12 2.19 2.40 2.45 2.40 2.36 2.39 2.82 2.80 2.80 2.90 2.84
0.15 0.16 0.24 0.37 0.54 0.87 1.17 1.38 1.33 1.10 1.02 0.83 0.66 0.61 0.61 0.58 0.56 0.56 0.63 0.83 0.91 0.95 1.04 1.20 1.40 1.60 1.83 2.09 2.33 2.41 2.40 2.41 2.56 2.72 2.65 2.48 2.39 2.14 2.18 2.25 2.46 2.57 2.66 2.71 2.89 2.81 2.82 3.02 2.97
0.15 0.16 0.21 0.30 0.50 0.74 1.06 1.47 1.57 1.38 1.17 0.99 0.89 0.70 0.58 0.60 0.60 0.57 0.58 0.67 0.74 0.81 0.92 1.13 1.32 1.36 1.59 1.99 2.28 2.27 2.36 2.28 2.43 2.40 2.39 2.42 2.32 2.24 2.30 2.31 2.39 2.55 2.65 2.70 2.86 2.86 2.91 3.08 3.09
0.19 0.17 0.18 0.24 0.28 0.44 0.93 1.23 1.13 1.13 1.06 0.99 0.87 0.77 0.71 0.68 0.66 0.62 0.62 0.62 0.75 0.69 0.78 0.96 1.09 1.25 1.56 1.93 2.26 2.40 2.35 2.31 2.38 2.22 2.16 2.27 2.28 2.26 2.34 2.36 2.35 2.32 2.43 2.63 2.87 2.81 2.96 3.07 3.10
0.19 0.19 0.20 0.27 0.27 0.30 0.50 0.83 0.68 0.76 0.88 0.90 0.75 0.68 0.65 0.57 0.54 0.50 0.49 0.55 0.55 0.57 0.69 0.99 1.31 1.66 1.87 2.19 2.55 2.72 2.52 2.30 2.15 1.97 1.95 2.09 2.25 2.30 2.33 2.34 2.33 2.24 2.34 2.61 2.76 2.85 3.09 3.22 3.09